| time (UTC) | temp C | wind direction | speed KPH | gust KPH | rain 1hr cm | rain 24hr cm | rain mn cm | humidity % | barometer mb |
| 20260510180021 | 13 | 154 | 0.0 | 1.6 | 0.00 | 0.00 | 0.00 | 81 | 1009.7 |
| 20260510175515 | 12 | 154 | 0.0 | 1.6 | 0.00 | 0.00 | 0.00 | 83 | 1009.9 |
| 20260510175013 | 13 | 154 | 0.0 | 0.0 | 0.00 | 0.00 | 0.00 | 82 | 1009.7 |
| 20260510174511 | 13 | 154 | 0.0 | 0.0 | 0.00 | 0.00 | 0.00 | 83 | 1009.9 |
| 20260510174007 | 13 | 154 | 0.0 | 1.6 | 0.00 | 0.00 | 0.00 | 84 | 1010.0 |
| 20260510173502 | 13 | 154 | 0.0 | 3.2 | 0.00 | 0.00 | 0.00 | 85 | 1009.9 |
| 20260510172959 | 13 | 154 | 0.0 | 0.0 | 0.00 | 0.00 | 0.00 | 86 | 1010.3 |
| 20260510172455 | 12 | 154 | 0.0 | 0.0 | 0.00 | 0.00 | 0.00 | 85 | 1010.2 |
| 20260510171951 | 13 | 154 | 0.0 | 3.2 | 0.00 | 0.00 | 0.00 | 84 | 1010.1 |
| 20260510171448 | 13 | 154 | 0.0 | 1.6 | 0.00 | 0.00 | 0.00 | 84 | 1010.3 |
| 20260510170945 | 12 | 154 | 0.0 | 0.0 | 0.00 | 0.00 | 0.00 | 85 | 1010.2 |
| 20260510170442 | 12 | 154 | 0.0 | 0.0 | 0.00 | 0.00 | 0.00 | 85 | 1010.4 |
| 20260510165938 | 13 | 154 | 0.0 | 3.2 | 0.00 | 0.00 | 0.00 | 85 | 1010.4 |
| 20260510165434 | 12 | 154 | 0.0 | 3.2 | 0.00 | 0.00 | 0.00 | 86 | 1010.5 |
| 20260510164931 | 12 | 174 | 1.6 | 3.2 | 0.00 | 0.00 | 0.00 | 87 | 1010.4 |
| 20260510164429 | 11 | 174 | 1.6 | 3.2 | 0.00 | 0.00 | 0.00 | 89 | 1010.5 |
| 20260510163928 | 11 | 174 | 0.0 | 4.8 | 0.00 | 0.00 | 0.00 | 94 | 1010.5 |
| 20260510163425 | 11 | 174 | 0.0 | 3.2 | 0.00 | 0.00 | 0.00 | 95 | 1010.6 |
| 20260510162920 | 11 | 174 | 3.2 | 4.8 | 0.00 | 0.00 | 0.00 | 95 | 1010.2 |
| 20260510162417 | 10 | 174 | 0.0 | 0.0 | 0.00 | 0.00 | 0.00 | 95 | 1010.3 |
| 20260510161913 | 10 | 174 | 0.0 | 0.0 | 0.00 | 0.00 | 0.00 | 95 | 1010.1 |
| 20260510161408 | 10 | 174 | 1.6 | 1.6 | 0.00 | 0.00 | 0.00 | 95 | 1010.2 |
| 20260510160906 | 10 | 174 | 0.0 | 3.2 | 0.00 | 0.00 | 0.00 | 95 | 1010.4 |
| 20260510160403 | 9 | 174 | 0.0 | 1.6 | 0.00 | 0.00 | 0.00 | 95 | 1010.4 |
| 20260510155856 | 10 | 174 | 0.0 | 1.6 | 0.00 | 0.00 | 0.00 | 95 | 1010.6 |
| 20260510155353 | 10 | 174 | 0.0 | 1.6 | 0.00 | 0.00 | 0.00 | 95 | 1010.5 |
| 20260510154849 | 9 | 174 | 0.0 | 0.0 | 0.00 | 0.00 | 0.00 | 95 | 1010.8 |
| 20260510154345 | 8 | 174 | 0.0 | 0.0 | 0.00 | 0.00 | 0.00 | 95 | 1010.5 |
| 20260510153840 | 9 | 174 | 0.0 | 0.0 | 0.00 | 0.00 | 0.00 | 95 | 1010.9 |
| 20260510153336 | 8 | 174 | 0.0 | 0.0 | 0.00 | 0.00 | 0.00 | 95 | 1010.9 |
| 20260510152833 | 9 | 274 | 0.0 | 0.0 | 0.00 | 0.00 | 0.00 | 95 | 1010.7 |
| 20260510152330 | 10 | 274 | 0.0 | 0.0 | 0.00 | 0.00 | 0.00 | 95 | 1010.8 |
| 20260510151826 | 10 | 274 | 0.0 | 0.0 | 0.00 | 0.00 | 0.00 | 95 | 1011.2 |
| 20260510151324 | 9 | 274 | 0.0 | 0.0 | 0.00 | 0.00 | 0.00 | 95 | 1010.8 |
| 20260510150820 | 9 | 274 | 0.0 | 0.0 | 0.00 | 0.00 | 0.00 | 95 | 1010.9 |
| 20260510150316 | 9 | 274 | 0.0 | 0.0 | 0.00 | 0.00 | 0.00 | 95 | 1010.8 |
| 20260510145812 | 10 | 274 | 0.0 | 0.0 | 0.00 | 0.00 | 0.00 | 95 | 1010.9 |
| 20260510145309 | 9 | 274 | 0.0 | 0.0 | 0.00 | 0.00 | 0.00 | 95 | 1011.1 |
| 20260510144805 | 8 | 274 | 0.0 | 0.0 | 0.00 | 0.00 | 0.00 | 95 | 1010.9 |
| 20260510144302 | 8 | 274 | 0.0 | 0.0 | 0.00 | 0.00 | 0.00 | 95 | 1011.1 |
| 20260510143802 | 8 | 274 | 0.0 | 3.2 | 0.00 | 0.00 | 0.00 | 95 | 1010.9 |
| 20260510143258 | 8 | 274 | 0.0 | 1.6 | 0.00 | 0.00 | 0.00 | 95 | 1010.6 |
| 20260510142754 | 8 | 274 | 1.6 | 3.2 | 0.00 | 0.00 | 0.00 | 95 | 1010.5 |
| 20260510142251 | 8 | 274 | 0.0 | 0.0 | 0.00 | 0.00 | 0.00 | 95 | 1010.7 |
| 20260510141749 | 7 | 274 | 0.0 | 0.0 | 0.00 | 0.00 | 0.00 | 95 | 1010.7 |
| 20260510141246 | 8 | 274 | 0.0 | 0.0 | 0.00 | 0.00 | 0.00 | 95 | 1010.8 |
| 20260510140742 | 7 | 274 | 0.0 | 0.0 | 0.00 | 0.00 | 0.00 | 95 | 1010.9 |
| 20260510140238 | 7 | 274 | 0.0 | 0.0 | 0.00 | 0.00 | 0.00 | 95 | 1010.9 |
| 20260510135732 | 7 | 274 | 0.0 | 0.0 | 0.00 | 0.00 | 0.00 | 95 | 1011.1 |
| 20260510135228 | 7 | 274 | 0.0 | 0.0 | 0.00 | 0.00 | 0.00 | 95 | 1011.4 |
| 20260510134726 | 7 | 274 | 0.0 | 0.0 | 0.00 | 0.00 | 0.00 | 95 | 1011.3 |
| 20260510134223 | 7 | 274 | 0.0 | 0.0 | 0.00 | 0.00 | 0.00 | 95 | 1011.2 |
| 20260510133718 | 7 | 274 | 0.0 | 0.0 | 0.00 | 0.00 | 0.00 | 95 | 1011.2 |
| 20260510133214 | 7 | 274 | 0.0 | 0.0 | 0.00 | 0.00 | 0.00 | 95 | 1011.4 |
| 20260510132711 | 7 | 274 | 0.0 | 0.0 | 0.00 | 0.00 | 0.00 | 95 | 1011.1 |
| 20260510132208 | 7 | 274 | 0.0 | 0.0 | 0.00 | 0.00 | 0.00 | 95 | 1011.2 |
| 20260510131705 | 7 | 274 | 0.0 | 0.0 | 0.00 | 0.00 | 0.00 | 95 | 1010.7 |
| 20260510131203 | 7 | 274 | 0.0 | 0.0 | 0.00 | 0.00 | 0.00 | 95 | 1010.9 |
| 20260510130653 | 7 | 274 | 0.0 | 0.0 | 0.00 | 0.00 | 0.00 | 95 | 1011.3 |
| 20260510130151 | 8 | 274 | 0.0 | 0.0 | 0.00 | 0.00 | 0.00 | 95 | 1011.1 |
| 20260510125647 | 8 | 274 | 0.0 | 0.0 | 0.00 | 0.00 | 0.00 | 95 | 1010.9 |
| 20260510125143 | 8 | 274 | 0.0 | 0.0 | 0.00 | 0.00 | 0.00 | 95 | 1010.8 |
| 20260510124640 | 8 | 274 | 0.0 | 0.0 | 0.00 | 0.00 | 0.00 | 95 | 1010.8 |
| 20260510124137 | 7 | 274 | 0.0 | 0.0 | 0.00 | 0.00 | 0.00 | 95 | 1010.9 |
| 20260510123632 | 7 | 274 | 0.0 | 0.0 | 0.00 | 0.00 | 0.00 | 95 | 1010.7 |
| 20260510123129 | 7 | 274 | 0.0 | 0.0 | 0.00 | 0.00 | 0.00 | 95 | 1011.3 |
| 20260510122625 | 7 | 274 | 0.0 | 0.0 | 0.00 | 0.00 | 0.00 | 95 | 1011.1 |
| 20260510122121 | 8 | 274 | 0.0 | 0.0 | 0.00 | 0.00 | 0.00 | 95 | 1010.9 |
| 20260510121618 | 7 | 274 | 0.0 | 0.0 | 0.00 | 0.00 | 0.00 | 95 | 1011.2 |
| 20260510121115 | 7 | 274 | 0.0 | 0.0 | 0.00 | 0.00 | 0.00 | 95 | 1011.4 |
| 20260510120613 | 7 | 274 | 0.0 | 0.0 | 0.00 | 0.00 | 0.00 | 95 | 1011.1 |
| 20260510120108 | 7 | 274 | 0.0 | 0.0 | 0.00 | 0.00 | 0.00 | 95 | 1010.9 |
| 20260510115605 | 7 | 274 | 0.0 | 0.0 | 0.00 | 0.00 | 0.00 | 95 | 1010.7 |
| 20260510115103 | 7 | 274 | 0.0 | 0.0 | 0.00 | 0.00 | 0.00 | 95 | 1010.9 |
| 20260510114558 | 7 | 274 | 0.0 | 0.0 | 0.00 | 0.00 | 0.00 | 95 | 1010.7 |
| 20260510114054 | 7 | 274 | 0.0 | 0.0 | 0.00 | 0.00 | 0.00 | 95 | 1010.7 |
| 20260510113549 | 7 | 274 | 0.0 | 0.0 | 0.00 | 0.00 | 0.00 | 95 | 1010.5 |
| 20260510113048 | 7 | 274 | 0.0 | 0.0 | 0.00 | 0.00 | 0.00 | 95 | 1010.4 |
| 20260510112544 | 7 | 274 | 0.0 | 0.0 | 0.00 | 0.00 | 0.00 | 95 | 1010.8 |
| 20260510112040 | 7 | 274 | 0.0 | 0.0 | 0.00 | 0.00 | 0.00 | 95 | 1010.5 |
| 20260510111537 | 7 | 274 | 0.0 | 0.0 | 0.00 | 0.00 | 0.00 | 95 | 1010.3 |
| 20260510111033 | 7 | 274 | 0.0 | 0.0 | 0.00 | 0.00 | 0.00 | 95 | 1010.2 |
| 20260510110529 | 7 | 274 | 0.0 | 0.0 | 0.00 | 0.00 | 0.00 | 95 | 1009.9 |
| 20260510110026 | 7 | 274 | 0.0 | 0.0 | 0.00 | 0.00 | 0.00 | 95 | 1010.3 |
| 20260510105521 | 7 | 274 | 0.0 | 0.0 | 0.00 | 0.00 | 0.00 | 95 | 1009.9 |
| 20260510105016 | 6 | 274 | 0.0 | 0.0 | 0.00 | 0.00 | 0.00 | 95 | 1009.9 |
| 20260510104513 | 6 | 274 | 0.0 | 0.0 | 0.00 | 0.00 | 0.00 | 95 | 1010.1 |
| 20260510104009 | 6 | 274 | 0.0 | 0.0 | 0.00 | 0.00 | 0.00 | 95 | 1009.9 |
| 20260510103507 | 6 | 274 | 0.0 | 0.0 | 0.00 | 0.00 | 0.00 | 95 | 1009.8 |
| 20260510103003 | 6 | 274 | 0.0 | 0.0 | 0.00 | 0.00 | 0.00 | 95 | 1009.7 |
| 20260510102458 | 6 | 274 | 0.0 | 0.0 | 0.00 | 0.00 | 0.00 | 95 | 1009.6 |
| 20260510101955 | 6 | 274 | 0.0 | 0.0 | 0.00 | 0.00 | 0.00 | 95 | 1010.0 |
| 20260510101452 | 6 | 274 | 0.0 | 0.0 | 0.00 | 0.00 | 0.00 | 95 | 1009.7 |
| 20260510100951 | 6 | 274 | 0.0 | 0.0 | 0.00 | 0.00 | 0.00 | 95 | 1009.7 |
| 20260510100446 | 6 | 274 | 0.0 | 0.0 | 0.00 | 0.00 | 0.00 | 95 | 1009.5 |
| 20260510095943 | 6 | 274 | 0.0 | 0.0 | 0.00 | 0.00 | 0.00 | 95 | 1009.4 |
| 20260510095439 | 6 | 274 | 0.0 | 0.0 | 0.00 | 0.00 | 0.00 | 95 | 1009.6 |
| 20260510094938 | 6 | 274 | 0.0 | 0.0 | 0.00 | 0.00 | 0.00 | 95 | 1009.5 |
| 20260510094433 | 6 | 274 | 0.0 | 0.0 | 0.00 | 0.00 | 0.00 | 95 | 1009.1 |
| 20260510093929 | 6 | 274 | 0.0 | 0.0 | 0.00 | 0.00 | 0.00 | 95 | 1009.3 |
| 20260510093424 | 6 | 274 | 0.0 | 0.0 | 0.00 | 0.00 | 0.00 | 95 | 1009.2 |
| 20260510092921 | 6 | 274 | 0.0 | 0.0 | 0.00 | 0.00 | 0.00 | 95 | 1009.4 |
| 20260510092418 | 6 | 274 | 0.0 | 0.0 | 0.00 | 0.00 | 0.00 | 95 | 1009.4 |
| 20260510091913 | 6 | 274 | 0.0 | 0.0 | 0.00 | 0.00 | 0.00 | 95 | 1009.8 |
| 20260510091410 | 6 | 274 | 0.0 | 0.0 | 0.00 | 0.00 | 0.00 | 95 | 1009.7 |
| 20260510090906 | 6 | 274 | 0.0 | 0.0 | 0.00 | 0.00 | 0.00 | 95 | 1009.9 |
| 20260510090402 | 6 | 274 | 0.0 | 0.0 | 0.00 | 0.00 | 0.00 | 95 | 1009.7 |
| 20260510085858 | 6 | 274 | 0.0 | 0.0 | 0.00 | 0.00 | 0.00 | 95 | 1009.8 |
| 20260510085353 | 6 | 274 | 0.0 | 0.0 | 0.00 | 0.00 | 0.00 | 95 | 1009.9 |
| 20260510084844 | 6 | 274 | 0.0 | 0.0 | 0.00 | 0.00 | 0.00 | 95 | 1009.5 |
| 20260510084342 | 6 | 274 | 0.0 | 0.0 | 0.00 | 0.00 | 0.00 | 95 | 1009.7 |
| 20260510083838 | 6 | 274 | 0.0 | 0.0 | 0.00 | 0.00 | 0.00 | 95 | 1009.6 |
| 20260510083335 | 6 | 274 | 0.0 | 0.0 | 0.00 | 0.00 | 0.00 | 95 | 1009.5 |
| 20260510082830 | 6 | 274 | 0.0 | 0.0 | 0.00 | 0.00 | 0.00 | 95 | 1009.4 |
| 20260510082328 | 6 | 274 | 0.0 | 0.0 | 0.00 | 0.00 | 0.00 | 95 | 1009.6 |
| 20260510081826 | 6 | 274 | 0.0 | 0.0 | 0.00 | 0.00 | 0.00 | 95 | 1009.7 |
| 20260510081322 | 6 | 274 | 0.0 | 0.0 | 0.00 | 0.00 | 0.00 | 95 | 1010.0 |
| 20260510080818 | 6 | 274 | 0.0 | 0.0 | 0.00 | 0.00 | 0.00 | 95 | 1009.9 |
| 20260510080313 | 6 | 274 | 0.0 | 0.0 | 0.00 | 0.00 | 0.00 | 95 | 1010.1 |
| 20260510075811 | 6 | 274 | 0.0 | 0.0 | 0.00 | 0.00 | 0.00 | 95 | 1009.8 |
| 20260510075308 | 6 | 274 | 0.0 | 0.0 | 0.00 | 0.00 | 0.00 | 95 | 1010.1 |
| 20260510074805 | 6 | 274 | 0.0 | 0.0 | 0.00 | 0.00 | 0.00 | 95 | 1010.0 |
| 20260510074302 | 6 | 274 | 0.0 | 0.0 | 0.00 | 0.00 | 0.00 | 95 | 1010.0 |
| 20260510073758 | 6 | 274 | 0.0 | 0.0 | 0.00 | 0.00 | 0.00 | 95 | 1010.0 |
| 20260510073254 | 6 | 274 | 0.0 | 0.0 | 0.00 | 0.00 | 0.00 | 95 | 1009.8 |
| 20260510072749 | 6 | 274 | 0.0 | 0.0 | 0.00 | 0.00 | 0.00 | 95 | 1009.8 |
| 20260510072246 | 6 | 274 | 0.0 | 0.0 | 0.00 | 0.00 | 0.00 | 95 | 1009.9 |
| 20260510071743 | 6 | 274 | 0.0 | 0.0 | 0.00 | 0.00 | 0.00 | 95 | 1009.8 |
| 20260510071240 | 6 | 274 | 0.0 | 0.0 | 0.00 | 0.00 | 0.00 | 95 | 1010.0 |
| 20260510070739 | 6 | 274 | 0.0 | 0.0 | 0.00 | 0.00 | 0.00 | 95 | 1009.9 |
| 20260510070235 | 6 | 274 | 0.0 | 0.0 | 0.00 | 0.00 | 0.00 | 95 | 1009.7 |
| 20260510065729 | 6 | 274 | 0.0 | 0.0 | 0.00 | 0.00 | 0.00 | 95 | 1010.0 |
| 20260510065226 | 6 | 274 | 0.0 | 0.0 | 0.00 | 0.00 | 0.00 | 95 | 1009.7 |
| 20260510064723 | 6 | 274 | 0.0 | 0.0 | 0.00 | 0.00 | 0.00 | 95 | 1010.0 |
| 20260510064221 | 6 | 274 | 0.0 | 0.0 | 0.00 | 0.00 | 0.00 | 95 | 1010.0 |
| 20260510063717 | 6 | 274 | 0.0 | 0.0 | 0.00 | 0.00 | 0.00 | 95 | 1010.1 |
| 20260510063213 | 6 | 274 | 0.0 | 0.0 | 0.00 | 0.00 | 0.00 | 95 | 1010.3 |
| 20260510062710 | 6 | 274 | 0.0 | 0.0 | 0.00 | 0.00 | 0.00 | 95 | 1010.6 |
| 20260510062206 | 6 | 274 | 0.0 | 0.0 | 0.00 | 0.00 | 0.00 | 95 | 1010.4 |
| 20260510061701 | 6 | 274 | 0.0 | 0.0 | 0.00 | 0.00 | 0.00 | 95 | 1010.6 |
| 20260510061158 | 6 | 274 | 0.0 | 0.0 | 0.00 | 0.00 | 0.00 | 95 | 1010.3 |
| 20260510060655 | 6 | 274 | 0.0 | 0.0 | 0.00 | 0.00 | 0.00 | 95 | 1010.5 |
| 20260510060151 | 6 | 274 | 0.0 | 0.0 | 0.00 | 0.00 | 0.00 | 95 | 1010.4 |
| 20260510055647 | 6 | 274 | 0.0 | 0.0 | 0.00 | 0.00 | 0.00 | 95 | 1010.4 |
| 20260510055146 | 6 | 274 | 0.0 | 0.0 | 0.00 | 0.00 | 0.00 | 95 | 1010.6 |
| 20260510054641 | 6 | 274 | 0.0 | 0.0 | 0.00 | 0.00 | 0.00 | 95 | 1010.6 |
| 20260510054137 | 6 | 274 | 0.0 | 0.0 | 0.00 | 0.00 | 0.00 | 95 | 1010.5 |
| 20260510053636 | 6 | 274 | 0.0 | 0.0 | 0.00 | 0.00 | 0.00 | 95 | 1010.6 |
| 20260510053133 | 6 | 274 | 0.0 | 0.0 | 0.00 | 0.00 | 0.00 | 95 | 1010.6 |
| 20260510052629 | 6 | 274 | 0.0 | 0.0 | 0.00 | 0.00 | 0.00 | 95 | 1010.7 |
| 20260510052125 | 6 | 274 | 0.0 | 0.0 | 0.00 | 0.00 | 0.00 | 95 | 1010.6 |
| 20260510051621 | 6 | 274 | 0.0 | 0.0 | 0.00 | 0.00 | 0.00 | 95 | 1010.9 |
| 20260510051118 | 6 | 274 | 0.0 | 0.0 | 0.00 | 0.00 | 0.00 | 95 | 1010.9 |
| 20260510050615 | 6 | 274 | 0.0 | 0.0 | 0.00 | 0.00 | 0.00 | 95 | 1010.9 |
| 20260510050112 | 6 | 274 | 0.0 | 0.0 | 0.00 | 0.00 | 0.00 | 95 | 1010.6 |
| 20260510045609 | 6 | 274 | 0.0 | 0.0 | 0.00 | 0.00 | 0.00 | 95 | 1010.7 |
| 20260510045105 | 6 | 274 | 0.0 | 0.0 | 0.00 | 0.00 | 0.00 | 95 | 1010.5 |
| 20260510044602 | 6 | 274 | 0.0 | 0.0 | 0.00 | 0.00 | 0.00 | 95 | 1010.6 |
| 20260510044059 | 6 | 274 | 0.0 | 0.0 | 0.00 | 0.00 | 0.00 | 95 | 1010.9 |
| 20260510043554 | 6 | 274 | 0.0 | 0.0 | 0.00 | 0.00 | 0.00 | 95 | 1010.8 |
| 20260510043051 | 6 | 274 | 0.0 | 0.0 | 0.00 | 0.00 | 0.00 | 95 | 1011.1 |
| 20260510042545 | 6 | 274 | 0.0 | 0.0 | 0.00 | 0.00 | 0.00 | 95 | 1010.9 |
| 20260510042040 | 6 | 274 | 0.0 | 0.0 | 0.00 | 0.00 | 0.00 | 95 | 1010.8 |
| 20260510041537 | 6 | 274 | 0.0 | 0.0 | 0.00 | 0.00 | 0.00 | 95 | 1011.1 |
| 20260510041034 | 6 | 274 | 0.0 | 0.0 | 0.00 | 0.00 | 0.00 | 95 | 1010.9 |
| 20260510040531 | 6 | 274 | 0.0 | 0.0 | 0.00 | 0.00 | 0.00 | 95 | 1010.8 |
| 20260510040027 | 6 | 274 | 0.0 | 0.0 | 0.00 | 0.97 | 0.97 | 95 | 1011.1 |
| 20260510035524 | 6 | 274 | 0.0 | 0.0 | 0.00 | 0.97 | 0.97 | 95 | 1011.2 |
| 20260510035023 | 6 | 274 | 0.0 | 0.0 | 0.00 | 0.97 | 0.97 | 95 | 1011.2 |
| 20260510034522 | 6 | 274 | 0.0 | 0.0 | 0.00 | 0.97 | 0.97 | 95 | 1011.3 |
| 20260510034018 | 6 | 274 | 0.0 | 0.0 | 0.00 | 0.97 | 0.97 | 95 | 1011.1 |
| 20260510033514 | 6 | 274 | 0.0 | 0.0 | 0.00 | 0.97 | 0.97 | 95 | 1011.1 |
| 20260510033012 | 6 | 274 | 0.0 | 0.0 | 0.00 | 0.97 | 0.97 | 95 | 1011.2 |
| 20260510032508 | 6 | 274 | 0.0 | 0.0 | 0.18 | 0.97 | 0.97 | 95 | 1011.3 |
| 20260510032003 | 6 | 274 | 0.0 | 0.0 | 0.30 | 0.97 | 0.97 | 95 | 1011.4 |
| 20260510031458 | 6 | 274 | 0.0 | 0.0 | 0.00 | 0.91 | 0.91 | 95 | 1011.4 |
| 20260510030955 | 6 | 274 | 0.0 | 0.0 | 0.00 | 0.91 | 0.91 | 95 | 1011.6 |
| 20260510030450 | 6 | 274 | 0.0 | 0.0 | 0.00 | 0.91 | 0.91 | 95 | 1011.3 |
| 20260510025947 | 6 | 274 | 0.0 | 0.0 | 0.18 | 0.91 | 0.91 | 95 | 1011.7 |
| 20260510025445 | 6 | 274 | 0.0 | 0.0 | 0.00 | 0.89 | 0.89 | 95 | 1011.6 |
| 20260510024942 | 6 | 274 | 0.0 | 0.0 | 0.00 | 0.89 | 0.89 | 95 | 1011.6 |
| 20260510024438 | 6 | 274 | 0.0 | 0.0 | 0.00 | 0.89 | 0.89 | 95 | 1011.8 |
| 20260510023934 | 6 | 274 | 0.0 | 0.0 | 0.00 | 0.89 | 0.89 | 95 | 1011.9 |
| 20260510023431 | 6 | 274 | 0.0 | 0.0 | 0.00 | 0.89 | 0.89 | 95 | 1011.7 |
| 20260510022928 | 6 | 274 | 0.0 | 0.0 | 0.13 | 0.89 | 0.89 | 95 | 1011.8 |
| 20260510022427 | 6 | 274 | 0.0 | 0.0 | 0.13 | 0.89 | 0.89 | 95 | 1011.8 |
| 20260510021926 | 6 | 274 | 0.0 | 0.0 | 0.00 | 0.86 | 0.86 | 95 | 1011.8 |
| 20260510021424 | 6 | 274 | 0.0 | 0.0 | 0.00 | 0.86 | 0.86 | 95 | 1012.0 |
| 20260510020921 | 6 | 274 | 0.0 | 0.0 | 0.00 | 0.86 | 0.86 | 95 | 1011.9 |
| 20260510020415 | 6 | 274 | 0.0 | 0.0 | 0.00 | 0.86 | 0.86 | 95 | 1012.0 |
| 20260510015911 | 6 | 274 | 0.0 | 0.0 | 0.00 | 0.86 | 0.86 | 95 | 1012.1 |
| 20260510015407 | 6 | 274 | 0.0 | 0.0 | 0.00 | 0.86 | 0.86 | 95 | 1012.0 |
| 20260510014902 | 6 | 274 | 0.0 | 0.0 | 0.00 | 0.86 | 0.86 | 95 | 1012.0 |
| 20260510014400 | 6 | 274 | 0.0 | 0.0 | 0.00 | 0.86 | 0.86 | 95 | 1012.2 |
| 20260510013856 | 6 | 274 | 0.0 | 0.0 | 0.00 | 0.86 | 0.86 | 95 | 1012.1 |
| 20260510013352 | 6 | 274 | 0.0 | 0.0 | 0.00 | 0.86 | 0.86 | 95 | 1012.1 |
| 20260510012847 | 6 | 274 | 0.0 | 0.0 | 0.00 | 0.86 | 0.86 | 95 | 1012.1 |
| 20260510012342 | 6 | 274 | 0.0 | 0.0 | 0.00 | 0.86 | 0.86 | 95 | 1012.1 |
| 20260510011837 | 6 | 274 | 0.0 | 0.0 | 0.00 | 0.86 | 0.86 | 95 | 1012.0 |
| 20260510011332 | 6 | 274 | 0.0 | 0.0 | 0.00 | 0.86 | 0.86 | 95 | 1011.7 |
| 20260510010829 | 6 | 274 | 0.0 | 0.0 | 0.00 | 0.86 | 0.86 | 95 | 1011.9 |
| 20260510010326 | 6 | 274 | 0.0 | 0.0 | 0.00 | 0.86 | 0.86 | 95 | 1011.8 |
| 20260510005823 | 6 | 274 | 0.0 | 0.0 | 0.00 | 0.86 | 0.86 | 95 | 1011.9 |
| 20260510005319 | 6 | 274 | 0.0 | 0.0 | 0.00 | 0.86 | 0.86 | 95 | 1011.9 |
| 20260510004817 | 6 | 274 | 0.0 | 0.0 | 0.00 | 0.86 | 0.86 | 95 | 1011.9 |
| 20260510004314 | 6 | 274 | 0.0 | 0.0 | 0.00 | 0.86 | 0.86 | 95 | 1011.7 |
| 20260510003812 | 6 | 274 | 0.0 | 0.0 | 0.00 | 0.86 | 0.86 | 95 | 1011.6 |
| 20260510003308 | 6 | 274 | 0.0 | 0.0 | 0.00 | 0.86 | 0.86 | 95 | 1011.5 |
| 20260510002807 | 6 | 274 | 0.0 | 0.0 | 0.00 | 0.86 | 0.86 | 95 | 1011.4 |
| 20260510002307 | 6 | 274 | 0.0 | 0.0 | 0.00 | 0.86 | 0.86 | 95 | 1011.6 |
| 20260510001801 | 6 | 274 | 0.0 | 0.0 | 0.00 | 0.86 | 0.86 | 95 | 1011.6 |
| 20260510001300 | 6 | 274 | 0.0 | 0.0 | 0.00 | 0.86 | 0.86 | 95 | 1011.7 |
| 20260510000755 | 6 | 274 | 0.0 | 0.0 | 0.00 | 0.86 | 0.86 | 95 | 1011.6 |
| 20260510000253 | 6 | 274 | 0.0 | 0.0 | 0.00 | 0.86 | 0.86 | 95 | 1011.4 |
| 20260509235750 | 6 | 274 | 0.0 | 0.0 | 0.00 | 0.86 | 0.86 | 95 | 1011.5 |
| 20260509235246 | 6 | 274 | 0.0 | 0.0 | 0.00 | 0.86 | 0.86 | 95 | 1011.7 |
| 20260509234742 | 6 | 274 | 0.0 | 0.0 | 0.00 | 0.86 | 0.86 | 95 | 1011.5 |
| 20260509234239 | 6 | 274 | 0.0 | 0.0 | 0.00 | 0.86 | 0.86 | 95 | 1011.7 |
| 20260509233737 | 6 | 274 | 0.0 | 0.0 | 0.00 | 0.86 | 0.86 | 95 | 1011.8 |
| 20260509233234 | 6 | 274 | 0.0 | 0.0 | 0.18 | 0.86 | 0.86 | 95 | 1012.0 |
| 20260509232730 | 6 | 274 | 0.0 | 0.0 | 0.18 | 0.86 | 0.86 | 95 | 1011.8 |
| 20260509232227 | 6 | 274 | 0.0 | 0.0 | 0.13 | 0.84 | 0.84 | 95 | 1012.0 |
| 20260509231724 | 6 | 274 | 0.0 | 0.0 | 0.13 | 0.84 | 0.84 | 95 | 1012.1 |
| 20260509231221 | 6 | 274 | 0.0 | 0.0 | 0.00 | 0.81 | 0.81 | 95 | 1012.0 |
| 20260509230719 | 6 | 274 | 0.0 | 0.0 | 0.00 | 0.81 | 0.81 | 95 | 1011.9 |
| 20260509230215 | 6 | 274 | 0.0 | 0.0 | 0.00 | 0.81 | 0.81 | 95 | 1012.1 |
| 20260509225711 | 6 | 274 | 0.0 | 0.0 | 0.18 | 0.81 | 0.81 | 95 | 1012.1 |
| 20260509225207 | 6 | 274 | 0.0 | 0.0 | 0.18 | 0.81 | 0.81 | 95 | 1012.0 |
| 20260509224702 | 6 | 274 | 0.0 | 0.0 | 0.00 | 0.79 | 0.79 | 95 | 1011.9 |
| 20260509224200 | 6 | 274 | 0.0 | 0.0 | 0.13 | 0.79 | 0.79 | 95 | 1012.1 |
| 20260509223656 | 6 | 274 | 0.0 | 0.0 | 0.13 | 0.79 | 0.79 | 95 | 1012.1 |
| 20260509223148 | 6 | 274 | 0.0 | 0.0 | 0.00 | 0.76 | 0.76 | 95 | 1012.1 |
| 20260509222645 | 6 | 274 | 0.0 | 0.0 | 0.18 | 0.76 | 0.76 | 95 | 1012.1 |
| 20260509222140 | 6 | 274 | 0.0 | 0.0 | 0.18 | 0.76 | 0.76 | 95 | 1012.0 |
| 20260509221636 | 6 | 274 | 0.0 | 0.0 | 0.00 | 0.74 | 0.74 | 95 | 1012.1 |
| 20260509221132 | 6 | 274 | 0.0 | 0.0 | 0.18 | 0.74 | 0.74 | 95 | 1012.2 |
| 20260509220628 | 6 | 274 | 0.0 | 0.0 | 0.18 | 0.74 | 0.74 | 95 | 1012.3 |
| 20260509220124 | 6 | 274 | 0.0 | 0.0 | 0.00 | 0.71 | 0.71 | 95 | 1012.3 |
| 20260509215620 | 6 | 274 | 0.0 | 0.0 | 0.13 | 0.71 | 0.71 | 95 | 1012.4 |
| 20260509215117 | 6 | 274 | 0.0 | 0.0 | 0.43 | 0.71 | 0.71 | 95 | 1012.3 |
| 20260509214614 | 6 | 274 | 0.0 | 0.0 | 0.48 | 0.69 | 0.69 | 95 | 1012.4 |
| 20260509214111 | 6 | 274 | 0.0 | 0.0 | 0.30 | 0.64 | 0.64 | 95 | 1012.8 |
| 20260509213602 | 6 | 274 | 0.0 | 0.0 | 0.13 | 0.61 | 0.61 | 95 | 1012.4 |
| 20260509213058 | 6 | 274 | 0.0 | 0.0 | 0.00 | 0.58 | 0.58 | 95 | 1012.3 |
| 20260509212555 | 6 | 274 | 0.0 | 0.0 | 0.00 | 0.58 | 0.58 | 95 | 1012.5 |
| 20260509212052 | 6 | 274 | 0.0 | 0.0 | 0.00 | 0.58 | 0.58 | 95 | 1012.2 |
| 20260509211548 | 6 | 274 | 0.0 | 0.0 | 0.18 | 0.58 | 0.58 | 95 | 1012.2 |
| 20260509211045 | 6 | 274 | 0.0 | 0.0 | 0.18 | 0.58 | 0.58 | 95 | 1011.7 |
| 20260509210541 | 6 | 274 | 0.0 | 0.0 | 0.00 | 0.56 | 0.56 | 95 | 1012.1 |
| 20260509210037 | 6 | 274 | 0.0 | 0.0 | 0.00 | 0.56 | 0.56 | 95 | 1012.2 |
| 20260509205532 | 6 | 274 | 0.0 | 0.0 | 0.00 | 0.56 | 0.56 | 95 | 1012.3 |
| 20260509205028 | 6 | 274 | 0.0 | 0.0 | 0.00 | 0.56 | 0.56 | 95 | 1012.3 |
| 20260509204524 | 6 | 274 | 0.0 | 0.0 | 0.13 | 0.56 | 0.56 | 95 | 1012.2 |
| 20260509204021 | 6 | 274 | 0.0 | 0.0 | 0.00 | 0.53 | 0.53 | 95 | 1012.0 |
| 20260509203516 | 6 | 274 | 0.0 | 0.0 | 0.18 | 0.53 | 0.53 | 95 | 1012.1 |
| 20260509203015 | 6 | 274 | 0.0 | 0.0 | 0.18 | 0.53 | 0.53 | 95 | 1012.4 |
| 20260509202509 | 6 | 274 | 0.0 | 0.0 | 0.13 | 0.51 | 0.51 | 95 | 1012.8 |
| 20260509202005 | 6 | 274 | 0.0 | 0.0 | 0.30 | 0.51 | 0.51 | 95 | 1012.7 |
| 20260509201500 | 6 | 274 | 0.0 | 0.0 | 0.18 | 0.48 | 0.48 | 94 | 1012.6 |
| 20260509200958 | 6 | 274 | 0.0 | 0.0 | 0.13 | 0.46 | 0.46 | 94 | 1012.7 |
| 20260509200452 | 6 | 274 | 0.0 | 0.0 | 0.18 | 0.43 | 0.43 | 94 | 1012.7 |
| 20260509195949 | 6 | 274 | 0.0 | 0.0 | 0.36 | 0.43 | 0.43 | 94 | 1012.7 |
| 20260509195445 | 6 | 274 | 0.0 | 0.0 | 0.18 | 0.41 | 0.41 | 94 | 1012.9 |
| 20260509194944 | 6 | 274 | 0.0 | 0.0 | 0.13 | 0.38 | 0.38 | 94 | 1013.1 |
| 20260509194440 | 6 | 274 | 0.0 | 0.0 | 0.30 | 0.38 | 0.38 | 94 | 1012.9 |
| 20260509193937 | 6 | 274 | 0.0 | 0.0 | 0.48 | 0.36 | 0.36 | 94 | 1013.0 |
| 20260509193437 | 6 | 274 | 0.0 | 0.0 | 0.43 | 0.33 | 0.33 | 93 | 1012.9 |
| 20260509192933 | 6 | 274 | 0.0 | 0.0 | 0.13 | 0.28 | 0.28 | 93 | 1013.1 |
| 20260509192430 | 6 | 274 | 0.0 | 0.0 | 0.18 | 0.25 | 0.25 | 93 | 1013.1 |
| 20260509191925 | 7 | 274 | 0.0 | 0.0 | 0.30 | 0.25 | 0.25 | 93 | 1013.0 |
| 20260509191420 | 7 | 274 | 0.0 | 0.0 | 0.13 | 0.23 | 0.23 | 93 | 1013.0 |
| 20260509190917 | 7 | 274 | 0.0 | 0.0 | 0.00 | 0.20 | 0.20 | 93 | 1013.2 |
| 20260509190414 | 7 | 274 | 0.0 | 0.0 | 0.18 | 0.20 | 0.20 | 92 | 1013.4 |
| 20260509185912 | 7 | 274 | 0.0 | 0.0 | 0.13 | 0.18 | 0.18 | 92 | 1013.1 |
| 20260509185409 | 7 | 274 | 0.0 | 0.0 | 0.13 | 0.18 | 0.18 | 92 | 1013.2 |
| 20260509184905 | 7 | 274 | 0.0 | 1.6 | 0.18 | 0.15 | 0.15 | 92 | 1013.2 |
| 20260509184402 | 7 | 274 | 0.0 | 0.0 | 0.18 | 0.15 | 0.15 | 91 | 1013.1 |
| 20260509183859 | 7 | 274 | 0.0 | 1.6 | 0.13 | 0.13 | 0.13 | 90 | 1013.2 |
| 20260509183354 | 7 | 274 | 0.0 | 0.0 | 0.13 | 0.13 | 0.13 | 90 | 1013.2 |
| 20260509182850 | 7 | 274 | 0.0 | 0.0 | 0.18 | 0.10 | 0.10 | 90 | 1013.4 |
| 20260509182347 | 7 | 274 | 0.0 | 0.0 | 0.18 | 0.10 | 0.10 | 89 | 1013.3 |
| 20260509181845 | 7 | 274 | 0.0 | 0.0 | 0.18 | 0.08 | 0.08 | 88 | 1013.0 |
| 20260509181342 | 7 | 274 | 0.0 | 0.0 | 0.18 | 0.08 | 0.08 | 87 | 1013.3 |
| 20260509180839 | 7 | 274 | 0.0 | 0.0 | 0.00 | 0.05 | 0.05 | 86 | 1013.3 |
| 20260509180335 | 8 | 274 | 0.0 | 0.0 | 0.13 | 0.05 | 0.05 | 86 | 1013.2 |